Location: Azat
(46.0765°N, 1.7600°E)
Time: 19:26:51
(UTC+00:00)

STARLINK-1236 - Pass Details

Date: 09 April 2020
Orbit: 549 x 550 km, 53.0° (Epoch: 03 June)

Event Time Altitude Azimuth Distance (km) Brightness Sun altitude
Rises 19:19:23 0° 297° (WNW) 2,675 9.5 -8.6°
Reaches altitude 10° 19:21:43 10° 306° (NW) 1,783 7.7 -9.0°
Maximum altitude 19:25:30 38° 15° (NNE) 830 4.6 -9.6°
Enters shadow 19:29:08 11° 84° (E) 1,723 5.6 -10.1°
